Regional Weather Roundup
Issued by NWS San Angelo, TX

Home | Current Version | Previous Version | Text Only | Print | Product List | Glossary On
Versions: 1 2 3 4 5 6 7 8 9 10 11 12 13 14 15 16 17 18 19 20 21 22 23 24 25 26 27 28 29 30 31 32 33 34 35 36 37 38 39 40 41 42 43 44 45 46 47 48 49 50
079
ASUS44 KSJT 161410
RWRSJT
WEST CENTRAL TEXAS REGIONAL WEATHER ROUNDUP
NATIONAL WEATHER SERVICE SAN ANGELO TX
800 AM CST TUE JAN 16 2018

NOTE: "FAIR" INDICATES FEW OR NO CLOUDS BELOW 12,000 FEET WITH NO
SIGNIFICANT WEATHER AND/OR OBSTRUCTIONS TO VISIBILITY.

TXZ049-054-064>066-071>073-076>078-098-099-113-114-127-128-139-140-
154-155-168>170-161500
...LOCATIONS ACROSS WEST CENTRAL TEXAS...

CITY           SKY/WX    TMP DP  RH WIND       PRES   REMARKS
SAN ANGELO     CLOUDY    24  32 100 N14       30.72R WCI  12
ABILENE        CLOUDY    17  -1  45 N18       30.75R WCI   1
DYESS AFB      CLOUDY    18  -4  37 N22G29    30.76R WCI   1
JUNCTION       CLOUDY    24   8  50 N16G24    30.67R WCI  11
SWEETWATER     CLOUDY    17  -2  42 N16G23    30.75R WCI   2
BROWNWOOD      CLOUDY    21   0  39 N17       30.75R WCI   7
COLEMAN        CLOUDY    21   1  41 N14G23    30.73R WCI   8
SONORA         CLOUDY    25   3  39 N15G26    30.69R WCI  12
OZONA          CLOUDY    27   0  31 NE21G28   30.68R WCI  13
BRADY          NOT AVBL
$$

TEXAS PANHANDLE/OKLAHOMA PANHANDLE

CITY           SKY/WX    TMP DP  RH WIND       PRES   REMARKS
AMARILLO       CLOUDY     3  -4  72 N12       30.65R WCI -13
BORGER         CLOUDY     5  -5  63 W5        30.71R WCI  -4
CANADIAN       CLOUDY     3  -4  69 CALM      30.76R
DALHART        CLEAR      2  -5  72 N5        30.62S WCI  -8
DUMAS          CLOUDY     1  -8  68 N9        30.64S WCI -15
GUYMON         NOT AVBL
HEREFORD       CLOUDY    11  -2  57 MISG      30.65R
PAMPA          CLOUDY    -1  -6  80 NW7       30.69R WCI -14
PERRYTON       CLOUDY    -1  -6  77 NW7       30.70R WCI -14
$$

SOUTHERN PANHANDLE/SOUTH PLAINS/ROLLING PLAINS

CITY           SKY/WX    TMP DP  RH WIND       PRES   REMARKS
LUBBOCK        MOCLDY    17  -3  41 N12       30.66R WCI   4
SNYDER         CLOUDY    16  -3  43 NE14      30.73R WCI   1
CHILDRESS      CLOUDY     9  -3  58 N7        30.80R WCI  -2
SEMINOLE       CLOUDY    15   0  52 CALM      30.68R
$$

PERMIAN BASIN

CITY           SKY/WX    TMP DP  RH WIND       PRES   REMARKS
MIDLAND        CLOUDY    23  -4  30 NE14      30.68R WCI  11
ODESSA         CLOUDY    22  -4  32 NE16      30.68R WCI   8
WINK           CLOUDY    25  -2  31 MISG      30.67R
$$

FAR WEST/SOUTHWEST MOUNTAINS/TRANS PECOS

CITY           SKY/WX    TMP DP  RH WIND       PRES   REMARKS
ALPINE         CLOUDY    20  18  93 NE12      30.62R WCI   8
DRYDEN           N/A     34  -1  22 N15G22    30.64R WCI  24
EL PASO        PTCLDY    28   7  41 E5        30.49R WCI  23
FORT STOCKTON  CLOUDY    25  -1  32 NE10      30.67R WCI  15
GUADALUPE PASS MOCLDY    17  -2  43 NE43G49   30.46R WCI  -6
MARFA          CLOUDY    20  16  84 NE18        N/A  WCI   5
PECOS          CLOUDY    28   2  32 NE8       30.70R WCI  20
$$

DALLAS/FORT WORTH METROPLEX

CITY           SKY/WX    TMP DP  RH WIND       PRES   REMARKS
DFW AIRPORT    CLOUDY    22   4  46 N18       30.76R WCI   7
FTW MEACHAM    CLOUDY    20   3  48 N18       30.79R WCI   5
DAL-EXECUTIVE  CLOUDY    21   5  50 N16G24    30.76R WCI   7
GRAND PRAIRIE  PTCLDY    21   3  45 NW13G20   30.80R WCI   9
ADDISON        MOCLDY    19   5  53 N14G29    30.79R WCI   6
MESQUITE       CLOUDY    19   5  53 N18G35    30.79R WCI   4
LANCASTER      CLOUDY    21   6  53 N15G22    30.80R WCI   7
$$

NORTH CENTRAL TEXAS

CITY           SKY/WX    TMP DP  RH WIND       PRES   REMARKS
SHRMAN/DENISON SUNNY     12   1  63 N10       30.82S WCI  -2
GAINESVILLE    CLEAR     11  -3  53 N14       30.83R WCI  -4
BRIDGEPORT     CLOUDY    15  -1  50 N12G17    30.84R WCI   2
DENTON         CLOUDY    15   1  53 N12       30.82R WCI   2
WAXAHACHIE     CLOUDY    20   8  59 N18       30.78R WCI   5
GRANBURY       CLOUDY    23   5  46 NW14G21   30.81R WCI  10
$$

WESTERN NORTH TEXAS

CITY           SKY/WX    TMP DP  RH WIND       PRES   REMARKS
WICHITA FALLS  CLOUDY    10  -2  58 N14       30.84R WCI  -6
VERNON         CLOUDY    10  -6  49 N7        30.86R WCI  -1
BRECKENRIDGE   NOT AVBL
COMANCHE       CLOUDY    20   2  45 N14G23    30.74R WCI   7
$$

CENTRAL AND SOUTH CENTRAL TEXAS

CITY           SKY/WX    TMP DP  RH WIND       PRES   REMARKS
AUSTIN/BERGSTM CLOUDY    26  16  65 N29G37    30.66R WCI  10
WACO           CLOUDY    24   9  52 N17G29    30.75R WCI  11
HILLSBORO      CLOUDY    22  10  58 N22G28    30.75R WCI   7
TEMPLE         CLOUDY    23  10  57 N23       30.72R WCI   7
KILLEEN-GRAY   NOT AVBL
FORT HOOD      CLOUDY    24   7  48 N17       30.68R WCI  10
GEORGETOWN     CLOUDY    25   9  50 N18G32    30.70R WCI  11
LAGO VISTA     CLOUDY    26  11  53 N16G25    30.65R WCI  13
SAN MARCOS     FLURRIES  27  20  75 N23G31    30.64R WCI  12
NEW BRAUNFELS  FLURRIES  27  18  69 N29G37    30.60R WCI  11
RANDOLPH AFB   MIX PCPN  27  19  74 N21G28    30.61R WCI  13
SAN ANTONIO    FRZ RAIN  27  19  72 N21G32    30.61R WCI  13
STINSON        MIX PCPN  30  22  72 NE18G28   30.60R WCI  18
PLEASANTON     NOT AVBL
LA GRANGE      MIX PCPN  29  23  78 N13G32    30.62R WCI  19
GIDDINGS       MIX PCPN  26  21  80 N13G28    30.65R WCI  15
$$

EAST TEXAS

CITY           SKY/WX    TMP DP  RH WIND       PRES   REMARKS
PARIS          CLOUDY    12   2  64 N14G23    30.79R WCI  -3
CLARKSVILLE    NOT AVBL
TYLER          CLOUDY    20  11  68 N14       30.72R WCI   7
LONGVIEW       FLURRIES  21  17  84 N10       30.71R WCI  10
PALESTINE      FLURRIES  21  17  82 N15G21    30.73R WCI   8
NACOGDOCHES    LGT SNOW  21  18  88 N17G24    30.69R FOG     WCI   7
$$

TEXAS HILL COUNTRY AND EDWARDS PLATEAU

CITY           SKY/WX    TMP DP  RH WIND       PRES   REMARKS
LLANO          CLOUDY    27   9  46 N14       30.75R WCI  15
HORSESHOE BAY  CLOUDY    26  10  50 N9G20     30.69R WCI  17
KERRVILLE      CLOUDY    24  13  63 N20G26    30.60R WCI   9
FREDERICKSBRG  CLOUDY    24   7  49 N16G24    30.63R WCI  10
ROCKSPRINGS      N/A     21   7  53 NE20G29   30.63R WCI   6
HONDO          CLOUDY    31  24  75 N17       30.62R WCI  19
UVALDE         RAIN      29  24  79 N8        30.63R WCI  22
DEL RIO        CLOUDY    31   9  39 NW18G25   30.69R WCI  19
$$

SOUTHEAST TEXAS

CITY           SKY/WX    TMP DP  RH WIND       PRES   REMARKS
COLLEGE STN    CLOUDY    26  20  77 N22G29    30.67R WCI  12
CALDWELL       FLURRIES  25  20  79 N12G25    30.68R WCI  15
CROCKETT       FLURRIES  23  16  74 CALM      30.72R
BRENHAM        FLURRIES  27  24  88 N14G25    30.66R WCI  16
HUNTSVILLE     CLOUDY    24  22  91 N10G25    30.65R WCI  14
CONROE         MIX PCPN  26  25  96 N14G26    30.62R FOG     WCI  14
HOUSTON BUSH   LGTSLEET  30  28  92 N22G31    30.59R FOG     WCI  17
HOUSTON HOBBY  LGTSLEET  32  32 100 N20G31    30.55R FOG     WCI  20
PERLAND        LGT RAIN  33  33 100 N20G28    30.56R FOG     WCI  21
WHARTON        CLOUDY    30  28  91 N13       30.57R WCI  20
$$

THE UPPER TEXAS COAST

CITY           SKY/WX    TMP DP  RH WIND       PRES   REMARKS
ORANGE         DRIZZLE   37  36  97 N16G26    30.54R WCI  27
PORT ARTHUR    FLURRIES  37  34  89 N20G31    30.53R WCI  27
GALVESTON      CLOUDY    38  36  92 N36       30.51R WCI  25
ANGLETON       MIX PCPN  35  31  85 N25G32    30.52R WCI  23
BAY CITY       MIX PCPN  33  32  96 N26G35    30.51R WCI  20
$$

TEXAS COASTAL BEND, RIO GRANDE PLAINS DEEP SOUTH TEXAS

CITY           SKY/WX    TMP DP  RH WIND       PRES   REMARKS
VICTORIA       LGT RAIN  31  28  89 N18G26    30.57R FOG     WCI  19
BEEVILLE       CLOUDY    32  28  86 N15G29    30.55R WCI  22
ROCKPORT       LGT SNOW  33  30  88 N28G45    30.52R FOG     WCI  20
PORT ARANSAS   NOT AVBL
PORT LAVACA    RAIN      32  30  92 N31G40    30.54R WCI  17
CORPUS CHRISTI CLOUDY    35  33  92 N29G37    30.52R WCI  22
KINGSVILLE NAS CLOUDY    37  32  82 N21G33    30.53R WCI  26
COTULLA        MIX PCPN  32  30  92 N12G22    30.62R FOG     WCI  23
LAREDO         LGT RAIN  36  33  89 N26G32    30.58R WCI  24
BROWNSVILLE    CLOUDY    53  48  83 N20G30    30.41R
PORT ISABEL    CLOUDY    51  47  86 N26G37    30.40R
HEBBRONVILLE   CLOUDY    35  33  94 N24G31    30.52R WCI  22
MCALLEN        LGT RAIN  47  40  76 N21G32    30.43R WCI  39
WESLACO        CLOUDY    44  39  82 NE13      30.43R WCI  38
FALFURRIAS     CLOUDY    38  34  85 N20G26    30.51R WCI  28
EDINBURG       CLOUDY    44  39  83 N20G26    30.46R WCI  35
$$




USA.gov is the U.S. government's official web portal to all federal, state and local government web resources and services.